Погода в Сеймчане

Погода в Сеймчане : погода сейчас, прогноз погоды и архив. Всё, что Вы хотите узнать о погоде в Сеймчане!

Хотите узнать прогноз погоды в Сеймчане? Тогда Вам сюда: Погода в Сеймчане

Поиск расширенной информации на нашем сайте:

Другие новости

Новости СМИ2

Главная страница сайта

Новости сайта

03.07.2017

Напоминаем, что на нашем специализированном сайте Метеоцентр.Азия вы можете получить высокодетализированные автоматические прогнозы погоды по пунктам России, СНГ и мира в авиационном формате (включающие направление и скорость ветра, видимость, явления погоды, количество и форму облачности, нижнюю и верхнюю границу облачности).

Рекомендуем: Если плохие окна необходимо грамотно выбрать нащельник со склада.

Погода в Сеймчане - сегодня

Время (UTC), дата Ветер
(°,м/с) 
Видим.   Явления Облачность Т
(°С)
Тd
(°С)
f(%) Тe
(°С)
Pmin
(гПа)
dP
(гПа)
Po
(мм)
O2
(г/м3)
Тmin Tmax R s Состояние
почвы
18 19.11.17 170 (Ю) 2000 м  снег  10/6 1000 м средняя 
[Sc|As op]
-26.2 -29.1 77 -27  1008  -4.2  734  329           
21 19.11.17 020 (С) 2000 м  слаб. ливневой снег  10/6 1000 м кучево-дожд., средняя 
[Cb calv|As op]
-17.6 -20.9 75 -24  1003.3  -3.6  732  317  -32.1    47  равномерный
сухой снег
100% 
00 20.11.17 020 (С) 5{11}  10 км  слаб. ливневой снег  10/6 1000 м кучево-дожд., средняя 
[Cb calv|As trans]
-17.4 -21.2 72 -23  1000  -3.2  729  315           
03 20.11.17 020 (С) 5{12}  4000 м  слаб. ливневой снег  10/6 1000 м кучево-дожд., средняя 
[Cb calv|As trans]
-17.7 -21.6 71 -24  996.3  -3.6  727  315           
06 20.11.17 020 (С) 4000 м  слаб. ливневой снег  10/6 1000 м кучево-дожд., средняя 
[Cb calv|As trans]
-17.8 -21.2 75 -22  995.6  -0.7  726  314           
09 20.11.17 010 (С) 10 км  слаб. ливневой снег  10/6 1000 м кучево-дожд., средняя 
[Cb calv|As trans]
-18.2 -21.7 74 -21  996.1  0.4  726  315    -17.4     
12 20.11.17 тихо ()   20000 м  слаб. ливневой снег  10/5 800 м кучево-дожд., средняя 
[Cb calv|As trans]
-18.7 -21.9 76 -19  996.5  0.4  727  316           
15 20.11.17 180 (Ю) 20000 м  {ливн. осадки}  10/5 720 м кучево-дожд., средняя, верхняя 
[Cb calv|Ac trans|Cs]
-21 -23.4 81 -21  997  0.3  727  319           
18 20.11.17 тихо ()   20000 м  {ливн. осадки}  10/6 800 м кучево-дожд., средняя, верхняя 
[Cb calv|Ac trans|Cs]
-21.1 -23.5 81 -21  996.8  -0.2  727  319           
21 20.11.17 200 (Ю) 4000 м  слаб. снег  10/6 600 м средняя 
[Sc|As trans]
-21.3 -23.6 82 -22  997.1  0.2  727  319  -21.6    0.6  50  равномерный
сухой снег
100% 
00 21.11.17 270 (З) 20000 м  в посл. час снег  8/3 600 м средняя, верхняя 
[Sc|Ac trans|Ci fib]
-25.2 -28.1 77 -26  997.9  0.4  727  325  -25.2         
03 21.11.17 тихо ()   20000 м    3/0 верхняя 
[Ci fib]
-25.5 -29.6 68 -26  997.8  -0.2  727  325           
06 21.11.17 тихо ()   20000 м    1/0 верхняя 
[Ci fib]
-33.5 -36.9 71 -34  999.3  0.6  727  336           
09 21.11.17 210 (ЮЗ) 20000 м  ледяные иглы{снег}  1/0 верхняя 
[Ci fib]
-36.3 -40.1 68 -37  1000.2  0.5  728  340    -21.3  0.2     
12 21.11.17 тихо ()   20000 м  ледяные иглы{снег}  4/0 верхняя 
[Ci fib]
-34.6 -38.2 70 -35  1000.4  0.4  728  338           
15 21.11.17 тихо ()   20000 м  ледяные иглы{снег}  6/0 верхняя 
[Ci fib]
-34.7 -38.4 69 -35  999.5  -0.9  727  338           
18 21.11.17 тихо ()   20000 м  ледяные иглы{снег}  6/0 верхняя 
[Ci fib]
-35.1 -38.8 69 -35  999.4  -0.2  727  338           
21 21.11.17 тихо ()   20000 м  ледяные иглы{снег}  4/0 верхняя 
[Ci fib]
-37.9 -41.9 66 -38  1000.6  0.8  728  343  -37.9      49  равномерный
сухой снег
100% 
00 22.11.17 тихо ()   20000 м  ледяные иглы{снег}  9/3 1000 м средняя, верхняя 
[Sc|Ac trans|Ci fib]
-33.7 -37.3 70 -34  1001.4  1.3  729  337           
03 22.11.17 тихо ()   20000 м  {снег}  8/0 средняя, верхняя 
[Ac trans|Ci fib]
-26.6 -30.5 69 -27  1001.4  0.8  730  327           
06 22.11.17 тихо ()   20000 м  {снег}  6/0 средняя, верхняя 
[Ac trans|Ci fib]
-34.1 -37.6 71 -34  1004.2  1.8  731  339           
09 22.11.17 320 (СЗ) 20000 м  ледяные иглы{снег}  6/0 средняя, верхняя 
[Ac trans|Ci fib]
-36 -39.8 68 -37  1006.2  1.6  732  342    -25.4       
12 22.11.17 тихо ()   20000 м  ледяные иглы{снег}  6/0 верхняя 
[Ci fib]
-35.8 -39.6 68 -36  1008.4  2.1  734  342           
15 22.11.17 тихо ()   20000 м  ледяные иглы{снег}  3/0 верхняя 
[Ci fib]
-39.2 -43.3 65 -39  1010.9  2.1  735  348           
18 22.11.17 310 (СЗ) 20000 м  ледяные иглы{снег}  ясно 
-39.9 -44.2 63 -41  1013.4  2.3  737  350           
Время (UTC), дата Ветер
(°,м/с) 
Видим.   Явления Облачность Т
(°С)
Тd
(°С)
f(%) Тe
(°С)
Pmin
(гПа)
dP
(гПа)
Po
(мм)
O2
(г/м3)
Тmin Tmax R s Состояние
почвы

Для получения пояснительной информации подведите курсор к названию столбца.

ПОГОДА в Сеймчане - архив

Всё, что Вы хотите узнать о погоде в Сеймчане - удобно и подробно!

Выберите нужную дату (начиная с 1 января 2015* года) и нажмите кнопку "Найти".
Будут отображены архивные сводки погоды по пункту Сеймчан, начиная с указанной даты.


Отображать данные в формате CSV (для использования в таблицах Excel)


Внимание! Наш архив погоды предназначен исключительно для личного некоммерческого использования в познавательных целях. Если Вам необходимы официальные справки о состоянии погоды (для производственных, юридических, коммерческих и т.п. целей), обращайтесь в органы Росгидромета.

*Примечание: данная дата относится к архиву по метеостанциям СССР (Россия, СНГ, Балтия).
Архив по метеостанциям Зарубежной Европы и Азии (кроме Китая) хранится 10 дней, по другим регионам земного шара (Китай, Африка, Америка, Австралия, Океания) - 1 день.

Сеймчан - район местоположения метеостанции


Название, широта, долгота, высота метеостанции:
Сеймчан 62.9°ш. 152.4°д. 205 м над ур. моря [Российская Федерация]

Дополнительная информация

В oтличие oт бoльшинства пoгoдных сайтoв мы публикуем пoдрoбную метеoинфoрмацию в детальнoм прoфессиoнальнoм фoрмате.

Характеристики температуры и влажнoсти вoздуха измеряются на высoте 2 м в тени вдали oт зданий и деревьев.
Скoрoсть ветра измеряется на высoте 10 м (на урoвне рoста челoвека скoрoсть ветра ниже в 1.5-2 раза). Если метеoстанция нахoдится в гoрoде или в лесу, тo скoрoсть ветра занижена на 2-4 м/с пo сравнению с oткрытым местoм. Скoрoсть ветра над акватoриями крупных рек и oзёр, а также на вершинах хoлмoв на 2-5 м/с выше, чем в oбычных услoвиях.
Атмoсфернoе давление в разных тoчках местнoсти мoжет значительнo oтличаться oт давления на метеoстанции, в зависимoсти oт услoвий рельефа (при пoдъёме на 10 м давление пoнижается примернo на 1 мм рт.ст.).